Simultaneous Nadir Overpasses (SNOs) Predictions

Prediction of SNOs between LANDSAT-8 and METOP-B Satellite Orbit:

Table of predicted SNOs for the next 14.0 days since TLE Epoch: 7/13/2019
Index Date (LANDSAT-8) Time (LANDSAT-8) Lat,Lon (LANDSAT-8) SZA (LANDSAT-8 ) Date (METOP-B) Time (METOP-B) Lat,Lon (METOP-B) SZA (METOP-B ) Distance(km) Time Diff (sec)
1 07/15/2019 15:58:07 -81.15, 160.97 118.29 07/15/2019 15:57:40 -81.15, 161.01 118.29 0.76 27
2 07/15/2019 16:47:32 81.18, -30.92 61.79 07/15/2019 16:48:19 81.18, -30.96 61.81 0.88 47
3 07/18/2019 11:32:22 -81.17,-132.36 117.79 07/18/2019 11:32:02 -81.16,-132.43 117.81 1.51 20
4 07/18/2019 12:21:48 81.17, 35.36 62.23 07/18/2019 12:22:42 81.17, 35.21 62.24 2.62 54
5 07/21/2019 07:06:37 -81.16, -66.07 117.30 07/21/2019 07:06:23 -81.16, -65.88 117.28 3.29 14
6 07/21/2019 07:56:02 81.18, 101.99 62.77 07/21/2019 07:57:02 81.18, 102.13 62.81 2.37 60
7 07/24/2019 02:40:52 -81.17, 0.56 116.72 07/24/2019 02:40:45 -81.17, 0.66 116.71 1.64 7
8 07/24/2019 03:30:18 81.17, 168.23 63.30 07/24/2019 03:31:25 81.18, 168.28 63.34 1.06 67
9 07/26/2019 21:25:42 81.13,-101.22 63.79 07/26/2019 21:24:29 81.14,-101.22 63.77 0.60 73
10 07/26/2019 22:15:08 -81.16, 66.80 116.14 07/26/2019 22:15:08 -81.16, 66.81 116.14 0.41 0




NCC Satellite Simultaneous Nadir Overpasses (SNOs) Prediction Service
